Location: Abraham Lincoln Continuation High School
(33.9711°N, 117.3662°W)
Time: 10:38:55
(UTC+00:00)

Cosmos 1680 Rocket - Visible Passes

Search period start: 17 January 2021 00:00
Search period end: 27 January 2021 00:00
Orbit: 759 x 781 km, 74.1° (Epoch: 17 January)

Date Brightness Start Highest point End Pass type
(mag) Time Alt. Az. Time Alt. Az. Time Alt. Az.
19 Jan 6.1 03:56:50 10° NNW 03:57:04 11° NNW 03:57:04 11° NNW visible
20 Jan 4.9 03:20:29 10° NNW 03:22:42 26° N 03:22:42 26° N visible
21 Jan 3.8 02:44:24 10° N 02:48:55 41° NE 02:48:55 41° NE visible
21 Jan 6.1 04:27:35 10° NW 04:29:23 16° WNW 04:29:23 16° WNW visible
22 Jan 4.5 02:08:38 10° N 02:12:53 24° ENE 02:16:38 12° ESE visible
22 Jan 5.1 03:50:21 10° NW 03:54:57 32° W 03:57:22 22° SW visible
23 Jan 5.0 01:33:30 10° NNE 01:36:18 14° ENE 01:39:04 10° E visible
23 Jan 4.0 03:13:39 10° NNW 03:18:47 58° WSW 03:23:52 10° S visible
24 Jan 3.3 02:37:17 10° NNW 02:42:31 78° ENE 02:47:42 10° SSE visible
25 Jan 3.8 02:01:11 10° N 02:06:09 43° ENE 02:11:05 10° SE visible
25 Jan 6.2 03:44:29 10° NW 03:47:50 17° W 03:51:09 10° SW visible
26 Jan 5.3 03:07:12 10° NW 03:11:45 31° W 03:16:16 10° SSW visible
26 Jan 7.0 14:20:11 10° ESE 14:21:57 12° E 14:23:43 10° ENE visible
